• En España
  • Lista de países
  • Para 7 días
  • Temperatura del agua
  • Mapa Satelital
  • El tiempo en el mapa
  • Informadores
  • user-avatar
    Iniciar sesión

    Tiempo cada hora Tokarevo

    Hoy, 28 Mayo, Lunes

    Tiempo Temperatura Precipitaciones Viento Presión Humedad
    00:00 +10°C° 0 mm 3 mps 758 mmHg 77%
    01:00 +9°C° 0 mm 3 mps 758 mmHg 75%
    02:00 +8°C° 0 mm 3 mps 759 mmHg 73%
    03:00 +8°C° 0 mm 3 mps 760 mmHg 71%
    04:00 +8°C° 0 mm 3 mps 760 mmHg 69%
    05:00 +8°C° 0 mm 3 mps 761 mmHg 66%
    06:00 +10°C° 0 mm 3 mps 761 mmHg 59%
    07:00 +11°C° 0 mm 3 mps 762 mmHg 53%
    08:00 +13°C° 0 mm 3 mps 762 mmHg 46%
    09:00 +14°C° 0 mm 3 mps 762 mmHg 43%
    10:00 +16°C° 0 mm 3 mps 763 mmHg 40%
    11:00 +17°C° 0 mm 3 mps 763 mmHg 37%
    12:00 +17°C° 0 mm 3 mps 763 mmHg 36%
    13:00 +18°C° 0 mm 4 mps 763 mmHg 36%
    14:00 +18°C° 0 mm 4 mps 763 mmHg 36%
    15:00 +18°C° 0 mm 3 mps 763 mmHg 38%
    16:00 +18°C° 0 mm 3 mps 762 mmHg 40%
    17:00 +17°C° 0 mm 3 mps 762 mmHg 42%
    18:00 +15°C° 0 mm 2 mps 762 mmHg 49%
    19:00 +13°C° 0 mm 1 mps 762 mmHg 56%
    20:00 +11°C° 0 mm 1 mps 763 mmHg 62%
    21:00 +11°C° 0 mm 1 mps 763 mmHg 63%
    22:00 +10°C° 0 mm 1 mps 763 mmHg 63%
    23:00 +10°C° 0 mm 1 mps 763 mmHg 64%

    Mañana, 29 Mayo, Martes

    Tiempo Temperatura Precipitaciones Viento Presión Humedad
    00:00 +9°C° 0 mm 1 mps 763 mmHg 64%
    01:00 +9°C° 0 mm 1 mps 763 mmHg 65%
    02:00 +8°C° 0 mm 2 mps 763 mmHg 65%
    03:00 +8°C° 0 mm 2 mps 763 mmHg 65%
    04:00 +9°C° 0 mm 2 mps 763 mmHg 64%
    05:00 +10°C° 0 mm 2 mps 763 mmHg 63%
    06:00 +13°C° 0 mm 2 mps 762 mmHg 58%
    07:00 +14°C° 0 mm 3 mps 762 mmHg 52%
    08:00 +17°C° 0 mm 3 mps 762 mmHg 47%
    09:00 +18°C° 0 mm 3 mps 761 mmHg 43%
    10:00 +20°C° 0 mm 3 mps 761 mmHg 40%
    11:00 +21°C° 0 mm 3 mps 760 mmHg 37%
    12:00 +22°C° 0 mm 3 mps 760 mmHg 37%
    13:00 +22°C° 0 mm 4 mps 759 mmHg 37%
    14:00 +23°C° 0 mm 4 mps 758 mmHg 38%
    15:00 +22°C° 0 mm 4 mps 757 mmHg 41%
    16:00 +22°C° 0 mm 4 mps 757 mmHg 44%
    17:00 +22°C° 0 mm 3 mps 756 mmHg 47%
    18:00 +20°C° 0 mm 3 mps 755 mmHg 55%
    19:00 +18°C° 0 mm 3 mps 755 mmHg 63%
    20:00 +16°C° 0 mm 3 mps 754 mmHg 71%
    21:00 +16°C° 0 mm 3 mps 754 mmHg 72%
    22:00 +16°C° 0 mm 3 mps 753 mmHg 73%
    23:00 +16°C° 0 mm 3 mps 753 mmHg 73%

    Pasado mañana, 30 Mayo, Miércoles

    Tiempo Temperatura Precipitaciones Viento Presión Humedad
    00:00 +15°C° 0 mm 4 mps 752 mmHg 76%
    01:00 +14°C° 0 mm 4 mps 752 mmHg 79%
    02:00 +14°C° 0 mm 4 mps 751 mmHg 82%
    03:00 +15°C° 0 mm 4 mps 751 mmHg 82%
    04:00 +15°C° 0 mm 4 mps 750 mmHg 82%
    05:00 +15°C° 0 mm 4 mps 750 mmHg 82%
    06:00 +17°C° 0 mm 5 mps 749 mmHg 72%
    07:00 +20°C° 0 mm 5 mps 749 mmHg 62%
    08:00 +22°C° 0 mm 6 mps 748 mmHg 52%
    09:00 +23°C° 0 mm 6 mps 748 mmHg 47%
    10:00 +24°C° 0 mm 6 mps 747 mmHg 43%
    11:00 +26°C° 0 mm 7 mps 747 mmHg 38%
    12:00 +27°C° 0 mm 7 mps 746 mmHg 38%
    13:00 +27°C° 0 mm 7 mps 746 mmHg 37%
    14:00 +27°C° 0 mm 7 mps 745 mmHg 37%
    15:00 +26°C° 0 mm 6 mps 745 mmHg 42%
    16:00 +25°C° 0 mm 5 mps 745 mmHg 48%
    17:00 +24°C° 0 mm 3 mps 744 mmHg 53%
    18:00 +21°C° 0 mm 3 mps 745 mmHg 55%
    19:00 +20°C° 0 mm 3 mps 745 mmHg 56%
    20:00 +19°C° 0 mm 3 mps 745 mmHg 58%
    21:00 +17°C° 0 mm 3 mps 745 mmHg 59%
    22:00 +15°C° 0 mm 2 mps 746 mmHg 61%
    23:00 +12°C° 0 mm 2 mps 746 mmHg 62%

    31 Mayo, Jueves

    Tiempo Temperatura Precipitaciones Viento Presión Humedad
    00:00 +12°C° 0 mm 2 mps 746 mmHg 63%
    01:00 +12°C° 0 mm 2 mps 747 mmHg 63%
    02:00 +10°C° 0 mm 3 mps 747 mmHg 64%
    03:00 +10°C° 0 mm 3 mps 747 mmHg 66%
    04:00 +10°C° 0 mm 3 mps 748 mmHg 68%
    05:00 +10°C° 0 mm 3 mps 748 mmHg 70%
    06:00 +11°C° 0 mm 4 mps 749 mmHg 65%
    07:00 +12°C° 0 mm 4 mps 749 mmHg 59%
    08:00 +13°C° 0 mm 4 mps 750 mmHg 54%
    09:00 +14°C° 0 mm 4 mps 750 mmHg 51%
    10:00 +14°C° 0 mm 4 mps 750 mmHg 49%
    11:00 +14°C° 0 mm 5 mps 751 mmHg 46%
    12:00 +15°C° 0 mm 5 mps 751 mmHg 44%
    13:00 +15°C° 0 mm 5 mps 751 mmHg 42%
    14:00 +15°C° 0 mm 5 mps 751 mmHg 40%
    15:00 +14°C° 0 mm 5 mps 751 mmHg 40%
    16:00 +14°C° 0 mm 5 mps 751 mmHg 40%
    17:00 +13°C° 0 mm 4 mps 752 mmHg 40%
    18:00 +11°C° 0 mm 4 mps 752 mmHg 45%
    19:00 +10°C° 0 mm 3 mps 753 mmHg 50%
    20:00 +8°C° 0 mm 3 mps 753 mmHg 54%
    21:00 +7°C° 0 mm 2 mps 753 mmHg 56%
    22:00 +6°C° 0 mm 2 mps 754 mmHg 57%
    23:00 +5°C° 0 mm 2 mps 754 mmHg 59%

    1 Junio, Viernes

    Tiempo Temperatura Precipitaciones Viento Presión Humedad
    00:00 +5°C° 0 mm 2 mps 755 mmHg 61%
    01:00 +3°C° 0 mm 3 mps 755 mmHg 62%
    02:00 +3°C° 0 mm 3 mps 755 mmHg 64%
    03:00 +3°C° 0 mm 3 mps 756 mmHg 63%
    04:00 +3°C° 0 mm 3 mps 756 mmHg 61%
    05:00 +4°C° 0 mm 3 mps 756 mmHg 60%
    06:00 +5°C° 0 mm 4 mps 757 mmHg 55%
    07:00 +7°C° 0 mm 4 mps 757 mmHg 50%
    08:00 +8°C° 0 mm 4 mps 757 mmHg 44%
    09:00 +10°C° 0 mm 4 mps 757 mmHg 43%
    10:00 +11°C° 0 mm 4 mps 757 mmHg 42%
    11:00 +11°C° 0 mm 4 mps 757 mmHg 41%
    12:00 +12°C° 0 mm 4 mps 757 mmHg 41%
    13:00 +12°C° 0 mm 4 mps 757 mmHg 41%
    14:00 +13°C° 0 mm 4 mps 757 mmHg 40%
    15:00 +13°C° 0 mm 4 mps 757 mmHg 41%
    16:00 +13°C° 0 mm 4 mps 757 mmHg 42%
    17:00 +12°C° 0 mm 3 mps 757 mmHg 44%
    18:00 +11°C° 0 mm 3 mps 757 mmHg 50%
    19:00 +9°C° 0 mm 2 mps 757 mmHg 57%
    20:00 +8°C° 0 mm 1 mps 758 mmHg 63%
    21:00 +7°C° 0 mm 1 mps 758 mmHg 64%
    22:00 +6°C° 0 mm 1 mps 758 mmHg 65%
    23:00 +5°C° 0 mm 1 mps 758 mmHg 65%

    2 Junio, Sábado

    Tiempo Temperatura Precipitaciones Viento Presión Humedad
    00:00 +5°C° 0 mm 1 mps 759 mmHg 65%
    01:00 +5°C° 0 mm 1 mps 759 mmHg 65%
    02:00 +4°C° 0 mm 1 mps 759 mmHg 65%
    03:00 +5°C° 0 mm 1 mps 759 mmHg 63%
    04:00 +6°C° 0 mm 1 mps 759 mmHg 61%
    05:00 +7°C° 0 mm 1 mps 759 mmHg 59%
    06:00 +10°C° 0 mm 1 mps 759 mmHg 52%
    07:00 +12°C° 0 mm 1 mps 759 mmHg 46%
    08:00 +15°C° 0 mm 1 mps 759 mmHg 40%
    09:00 +16°C° 0 mm 1 mps 759 mmHg 37%
    10:00 +18°C° 0 mm 1 mps 759 mmHg 34%
    11:00 +20°C° 0 mm 1 mps 759 mmHg 32%
    12:00 +20°C° 0 mm 1 mps 758 mmHg 32%
    13:00 +21°C° 0 mm 1 mps 758 mmHg 32%
    14:00 +21°C° 0 mm 1 mps 757 mmHg 32%
    15:00 +21°C° 0 mm 1 mps 757 mmHg 33%
    16:00 +20°C° 0 mm 1 mps 756 mmHg 35%
    17:00 +20°C° 0 mm 1 mps 756 mmHg 37%
    18:00 +18°C° 0 mm 1 mps 756 mmHg 44%
    19:00 +15°C° 0 mm 1 mps 756 mmHg 50%
    20:00 +13°C° 0 mm 1 mps 756 mmHg 57%
    21:00 +12°C° 0 mm 1 mps 756 mmHg 59%
    22:00 +10°C° 0 mm 2 mps 756 mmHg 60%
    23:00 +9°C° 0 mm 2 mps 756 mmHg 62%
    Mostrar más